Location: Callao
(39.8979°N, 113.7141°W)
Time: 15:16:48
(UTC+00:00)

AO-91 - Pass Details

Date: 19 May 2021
Orbit: 453 x 808 km, 97.7° (Epoch: 19 June)

Event Time Altitude Azimuth Distance (km) Brightness Sun altitude
Rises 08:12:07 0° 353° (N) 2,845 ? -29.5°
Reaches altitude 10° 08:14:47 10° 334° (NNW) 2,006 ? -29.4°
Enters shadow 08:17:12 18° 301° (WNW) 1,615 ? -29.3°
